AirNav   Air Wisconsin pilot careers
 
 1076 users online  

22T Tecumseh Mills Airport
Tecumseh, Michigan, USA

GOING TO TECUMSEH?


FAA INFORMATION EFFECTIVE 11 OCTOBER 2018

Location

FAA Identifier: 22T
Lat/Long: 42-02-01.8551N / 083-52-42.0727W
42-02.030918N / 083-52.701212W
42.0338486 / -83.8783535
(estimated)
Elevation: 797 ft. / 243 m
From city: 4 miles NE of TECUMSEH, MI
Time zone: UTC -4 (UTC -5 during Standard Time)
Zip code: 49286

Airport Operations

Airport use: Open to the public
Activation date: 08/2015
Control tower: no
ARTCC: CLEVELAND CENTER
FSS: LANSING FLIGHT SERVICE STATION
NOTAMs facility: LAN (NOTAM-D service available)
Attendance: UNATNDD
Wind indicator: yes
Segmented circle: no

Airport Communications

CTAF: 122.9
WX ASOS at ARB (13 nm NE): PHONE 734-668-7173
WX ASOS at ADG (13 nm SW): 118.375 (517-265-9089)
WX ASOS at YIP (20 nm NE): PHONE 734-485-9056

Nearby radio navigation aids

VOR radial/distance  VOR name  Freq  Var
CRLr270/18.8CARLETON VOR/DME115.7003W
DXOr251/25.2DETROIT VOR/DME113.4006W
SVMr212/25.8SALEM VORTAC114.3003W
JXNr123/29.1JACKSON VOR/DME109.6005W
VWVr345/36.6WATERVILLE VOR/DME113.1002W
LFDr097/39.5LITCHFIELD VOR/DME111.2005W

 
NDB name  Hdg/Dist  Freq  Var  ID
TECUMSEHat field23906WTCU - -.-. ..-
ADRIAN048/13.327806WADG .- -.. --.
GROSSE ILE270/32.641907WRYS .-. -.-- ...

Airport Services

Runway Information

Runway 13/31

Dimensions: 4278 x 75 ft. / 1304 x 23 m
Surface: asphalt, in fair condition
RUNWAY 13  RUNWAY 31
Latitude: 42-02.198333N42-01.794500N
Longitude: 083-53.018500W083-52.244333W
Elevation: 789.0 ft.794.0 ft.
Traffic pattern: leftleft
Runway heading: 125 true305 true
Displaced threshold: 200 ft.210 ft.
Markings: basic, in good conditionbasic, in good condition
Obstructions: 82 ft. trees, 1520 ft. from runway, 16:1 slope to clear
RY 13 APCH RATIO 20:1 AT THLD.
15 ft. road, 260 ft. from runway, 4:1 slope to clear
RY 31 APCH RATIO 20:1 AT DSPLCD THLD.

Runway 7/25

Dimensions: 4258 x 75 ft. / 1298 x 23 m
Surface: asphalt, in fair condition
RUNWAY 7  RUNWAY 25
Latitude: 42-01.905667N42-02.225500N
Longitude: 083-53.189667W083-52.353000W
Elevation: 794.0 ft.794.0 ft.
Traffic pattern: leftleft
Runway heading: 063 true243 true
Displaced threshold: 365 ft.no
Markings: basic, in good conditionbasic, in good condition
Obstructions: 15 ft. road, 240 ft. from runway, 2:1 slope to clear
RY 07 APCH RATIO 20:1 AT DSPLCD THLD, +78 FT TREES 1560 FT DST.
26 ft. pline, marked, 732 ft. from runway, 20:1 slope to clear
RWY 25 +10 FT PVT ROAD 0 FT DST, 95 FT R.

Airport Ownership and Management from official FAA records

Ownership: Privately-owned
Owner: DANIEL MILLS
9797 STONE HWY
TECUMSEH, MI 49286
Phone (734) 428-0934
Manager: DANIEL MILLS
9398 NEAL RD
MANCHESTER, MI 48158
Phone 734-428-0934

Airport Operational Statistics

Aircraft based on the field: 4
Single engine airplanes: 4
    
Aircraft operations: 100/year *
50% transient general aviation
50% local general aviation
* for 12-month period ending 31 December 2014

Additional Remarks

FOR CD CTC DETROIT APCH AT 800-499-8181.

Instrument Procedures

There are no published instrument procedures at 22T.

Some nearby airports with instrument procedures:

KARB - Ann Arbor Municipal Airport (13 nm NE)
KADG - Lenawee County Airport (13 nm SW)
KYIP - Willow Run Airport (20 nm NE)
KDUH - Toledo Suburban Airport (20 nm SE)
KTTF - Custer Airport (21 nm E)
 
Loc | Ops | Rwys | IFR | FBO | Links
Com | Nav | Svcs | Stats | Notes


 
Aerial photo
WARNING: Photo may not be current or correct
Aerial photo of 22T (Tecumseh Mills Airport)
Photo by Brandon Schultz
Taken in July 2016
looking east.

Do you have a better or more recent aerial photo of Tecumseh Mills Airport that you would like to share? If so, please send us your photo.

 
Airport distance calculator
Flying to Tecumseh Mills Airport? Find the distance to fly.

From to 22T

Sunrise and sunset
Times for 15-Oct-2018
 Local
(UTC-4)
 Zulu
(UTC)
Morning civil twilight07:2111:21
Sunrise07:4911:49
Sunset18:5422:54
Evening civil twilight19:2223:22

Current date and time
Zulu (UTC)  16-Oct-2018 00:04:38
Local (UTC-4)  15-Oct-2018 20:04:38
 
METAR
KARB 
13nm NE 
734-668-7173
152353Z AUTO 26008KT 10SM CLR 04/M03 A3016 RMK AO2 SLP216 T00391033 10106 20039 53034
KADG 
14nm SW 
152353Z AUTO 30008KT 10SM CLR 05/M03 A3020 RMK AO2 SLP232 T00501033 10106 20050 53035 TSNO
KYIP 
19nm NE 
152353Z 28008KT 10SM CLR 06/M03 A3016 RMK AO2 SLP214 T00611028 10133 20061 51039
KDUH 
21nm SE 
152355Z AUTO 29004KT 10SM CLR 06/M01 A3018 RMK AO2 T00641015 10122 20064
KTTF 
21nm E 
152357Z AUTO 30009KT 10SM CLR 05/M02 A3017 RMK AO2 T00531018 10110 20052
TAF
KYIP 
19nm NE 
151926Z 1519/1618 29015G26KT P6SM SCT025 OVC040 TEMPO 1522/1601 SCT040 FM160100 26012KT P6SM BKN035 FM160500 24008KT P6SM BKN030 FM161000 22007KT P6SM SKC FM161500 22016G26KT P6SM SCT080
NOTAMs
Click for the latest NOTAMs
NOTAMs are issued by the DoD/FAA and will open in a separate window not controlled by AirNav.

 

 
 

Would you like to see your business listed on this page?

 If your business provides an interesting product or service to pilots, flight crews, aircraft, or users of the Tecumseh Mills Airport, you should consider listing it here.  To start the listing process, click on the button below
 
Add a business
 

Other Pages about Tecumseh Mills Airport

Page from the Michigan Airport Directory (PDF)
 
Update a link
 
Copyright © AirNav, LLC. All rights reserved. Privacy Policy  Contact